Year,Month,Day,Hour,Minute,Value (Times are PST for temperature in C)
2013,05,03,00,00,7.10
2013,05,03,00,01,7.10
2013,05,03,00,02,7.10
2013,05,03,00,03,7.10
2013,05,03,00,04,7.10
2013,05,03,00,05,7.10
2013,05,03,00,06,7.00
2013,05,03,00,07,7.00
2013,05,03,00,08,7.00
2013,05,03,00,09,7.00
2013,05,03,00,10,7.00
2013,05,03,00,11,7.00
2013,05,03,00,12,7.00
2013,05,03,00,13,7.00
2013,05,03,00,14,7.00
2013,05,03,00,15,7.00
2013,05,03,00,16,7.00
2013,05,03,00,17,7.00
2013,05,03,00,18,7.00
2013,05,03,00,19,7.00
2013,05,03,00,20,7.00
2013,05,03,00,21,7.00
2013,05,03,00,22,7.10
2013,05,03,00,23,7.10
2013,05,03,00,24,7.10
2013,05,03,00,25,7.10
2013,05,03,00,26,7.10
2013,05,03,00,27,7.10
2013,05,03,00,28,7.10
2013,05,03,00,29,7.10
2013,05,03,00,30,7.10
2013,05,03,00,31,7.10
2013,05,03,00,32,7.10
2013,05,03,00,33,7.10
2013,05,03,00,34,7.10
2013,05,03,00,35,7.10
2013,05,03,00,36,7.10
2013,05,03,00,37,7.10
2013,05,03,00,38,7.10
2013,05,03,00,39,7.10
2013,05,03,00,40,7.10
2013,05,03,00,41,7.10
2013,05,03,00,42,7.10
2013,05,03,00,43,7.10
2013,05,03,00,44,7.00
2013,05,03,00,45,7.00
2013,05,03,00,46,7.00
2013,05,03,00,47,7.00
2013,05,03,00,48,7.00
2013,05,03,00,49,6.90
2013,05,03,00,50,6.90
2013,05,03,00,51,6.90
2013,05,03,00,52,6.90
2013,05,03,00,53,6.90
2013,05,03,00,54,6.90
2013,05,03,00,55,6.90
2013,05,03,00,56,6.90
2013,05,03,00,57,6.90
2013,05,03,00,58,6.80
2013,05,03,00,59,6.80
2013,05,03,01,00,6.80
2013,05,03,01,01,6.80
2013,05,03,01,02,6.70
2013,05,03,01,03,6.70
2013,05,03,01,04,6.70
2013,05,03,01,05,6.70
2013,05,03,01,06,6.70
2013,05,03,01,07,6.70
2013,05,03,01,08,6.70
2013,05,03,01,09,6.70
2013,05,03,01,10,6.60
2013,05,03,01,11,6.60
2013,05,03,01,12,6.60
2013,05,03,01,13,6.60
2013,05,03,01,14,6.60
2013,05,03,01,15,6.60
2013,05,03,01,16,6.60
2013,05,03,01,17,6.60
2013,05,03,01,18,6.60
2013,05,03,01,19,6.50
2013,05,03,01,20,6.50
2013,05,03,01,21,6.50
2013,05,03,01,22,6.50
2013,05,03,01,23,6.40
2013,05,03,01,24,6.40
2013,05,03,01,25,6.40
2013,05,03,01,26,6.40
2013,05,03,01,27,6.40
2013,05,03,01,28,6.40
2013,05,03,01,29,6.40
2013,05,03,01,30,6.30
2013,05,03,01,31,6.30
2013,05,03,01,32,6.30
2013,05,03,01,33,6.30
2013,05,03,01,34,6.40
2013,05,03,01,35,6.40
2013,05,03,01,36,6.30
2013,05,03,01,37,6.30
2013,05,03,01,38,6.30
2013,05,03,01,39,6.30
2013,05,03,01,40,6.30
2013,05,03,01,41,6.30
2013,05,03,01,42,6.30
2013,05,03,01,43,6.30
2013,05,03,01,44,6.30
2013,05,03,01,45,6.30
2013,05,03,01,46,6.30
2013,05,03,01,47,6.30
2013,05,03,01,48,6.30
2013,05,03,01,49,6.30
2013,05,03,01,50,6.30
2013,05,03,01,51,6.30
2013,05,03,01,52,6.30
2013,05,03,01,53,6.30
2013,05,03,01,54,6.30
2013,05,03,01,55,6.30
2013,05,03,01,56,6.30
2013,05,03,01,57,6.30
2013,05,03,01,58,6.30
2013,05,03,01,59,6.20
2013,05,03,02,00,6.20
2013,05,03,02,01,6.20
2013,05,03,02,02,6.20
2013,05,03,02,03,6.20
2013,05,03,02,04,6.10
2013,05,03,02,05,6.10
2013,05,03,02,06,6.10
2013,05,03,02,07,6.10
2013,05,03,02,08,6.10
2013,05,03,02,09,6.10
2013,05,03,02,10,6.10
2013,05,03,02,11,6.10
2013,05,03,02,12,6.10
2013,05,03,02,13,6.10
2013,05,03,02,14,6.10
2013,05,03,02,15,6.10
2013,05,03,02,16,6.00
2013,05,03,02,17,6.00
2013,05,03,02,18,6.00
2013,05,03,02,19,6.00
2013,05,03,02,20,5.90
2013,05,03,02,21,5.90
2013,05,03,02,22,5.90
2013,05,03,02,23,5.90
2013,05,03,02,24,5.90
2013,05,03,02,25,5.90
2013,05,03,02,26,5.80
2013,05,03,02,27,5.80
2013,05,03,02,28,5.80
2013,05,03,02,29,5.80
2013,05,03,02,30,5.80
2013,05,03,02,31,5.80
2013,05,03,02,32,5.80
2013,05,03,02,33,5.80
2013,05,03,02,34,5.80
2013,05,03,02,35,5.80
2013,05,03,02,36,5.80
2013,05,03,02,37,5.80
2013,05,03,02,38,5.80
2013,05,03,02,39,5.70
2013,05,03,02,40,5.70
2013,05,03,02,41,5.70
2013,05,03,02,42,5.70
2013,05,03,02,43,5.70
2013,05,03,02,44,5.70
2013,05,03,02,45,5.70
2013,05,03,02,46,5.70
2013,05,03,02,47,5.70
2013,05,03,02,48,5.60
2013,05,03,02,49,5.60
2013,05,03,02,50,5.60
2013,05,03,02,51,5.60
2013,05,03,02,52,5.60
2013,05,03,02,53,5.60
2013,05,03,02,54,5.60
2013,05,03,02,55,5.60
2013,05,03,02,56,5.60
2013,05,03,02,57,5.60
2013,05,03,02,58,5.60
2013,05,03,02,59,5.60
2013,05,03,03,00,5.60
2013,05,03,03,01,5.50
2013,05,03,03,02,5.50
2013,05,03,03,03,5.50
2013,05,03,03,04,5.50
2013,05,03,03,05,5.50
2013,05,03,03,06,5.50
2013,05,03,03,07,5.50
2013,05,03,03,08,5.50
2013,05,03,03,09,5.50
2013,05,03,03,10,5.50
2013,05,03,03,11,5.50
2013,05,03,03,12,5.50
2013,05,03,03,13,5.50
2013,05,03,03,14,5.40
2013,05,03,03,15,5.40
2013,05,03,03,16,5.40
2013,05,03,03,17,5.40
2013,05,03,03,18,5.40
2013,05,03,03,19,5.40
2013,05,03,03,20,5.40
2013,05,03,03,21,5.40
2013,05,03,03,22,5.40
2013,05,03,03,23,5.40
2013,05,03,03,24,5.40
2013,05,03,03,25,5.40
2013,05,03,03,26,5.40
2013,05,03,03,27,5.40
2013,05,03,03,28,5.40
2013,05,03,03,29,5.40
2013,05,03,03,30,5.30
2013,05,03,03,31,5.30
2013,05,03,03,32,5.30
2013,05,03,03,33,5.30
2013,05,03,03,34,5.30
2013,05,03,03,35,5.20
2013,05,03,03,36,5.20
2013,05,03,03,37,5.20
2013,05,03,03,38,5.10
2013,05,03,03,39,5.10
2013,05,03,03,40,5.10
2013,05,03,03,41,5.00
2013,05,03,03,42,5.00
2013,05,03,03,43,4.90
2013,05,03,03,44,4.90
2013,05,03,03,45,4.90
2013,05,03,03,46,4.90
2013,05,03,03,47,4.90
2013,05,03,03,48,4.90
2013,05,03,03,49,4.90
2013,05,03,03,50,4.80
2013,05,03,03,51,4.80
2013,05,03,03,52,4.80
2013,05,03,03,53,4.80
2013,05,03,03,54,4.80
2013,05,03,03,55,4.80
2013,05,03,03,56,4.80
2013,05,03,03,57,4.80
2013,05,03,03,58,4.80
2013,05,03,03,59,4.80
2013,05,03,04,00,4.80
2013,05,03,04,01,4.80
2013,05,03,04,02,4.80
2013,05,03,04,03,4.80
2013,05,03,04,04,4.70
2013,05,03,04,05,4.70
2013,05,03,04,06,4.70
2013,05,03,04,07,4.70
2013,05,03,04,08,4.70
2013,05,03,04,09,4.70
2013,05,03,04,10,4.70
2013,05,03,04,11,4.70
2013,05,03,04,12,4.60
2013,05,03,04,13,4.60
2013,05,03,04,14,4.60
2013,05,03,04,15,4.60
2013,05,03,04,16,4.60
2013,05,03,04,17,4.50
2013,05,03,04,18,4.50
2013,05,03,04,19,4.50
2013,05,03,04,20,4.50
2013,05,03,04,21,4.50
2013,05,03,04,22,4.50
2013,05,03,04,23,4.50
2013,05,03,04,24,4.50
2013,05,03,04,25,4.40
2013,05,03,04,26,4.40
2013,05,03,04,27,4.40
2013,05,03,04,28,4.40
2013,05,03,04,29,4.40
2013,05,03,04,30,4.40
2013,05,03,04,31,4.40
2013,05,03,04,32,4.40
2013,05,03,04,33,4.40
2013,05,03,04,34,4.40
2013,05,03,04,35,4.50
2013,05,03,04,36,4.50
2013,05,03,04,37,4.60
2013,05,03,04,38,4.60
2013,05,03,04,39,4.60
2013,05,03,04,40,4.50
2013,05,03,04,41,4.50
2013,05,03,04,42,4.50
2013,05,03,04,43,4.50
2013,05,03,04,44,4.50
2013,05,03,04,45,4.40
2013,05,03,04,46,4.40
2013,05,03,04,47,4.40
2013,05,03,04,48,4.40
2013,05,03,04,49,4.40
2013,05,03,04,50,4.50
2013,05,03,04,51,4.40
2013,05,03,04,52,4.40
2013,05,03,04,53,4.40
2013,05,03,04,54,4.40
2013,05,03,04,55,4.40
2013,05,03,04,56,4.30
2013,05,03,04,57,4.30
2013,05,03,04,58,4.30
2013,05,03,04,59,4.30
2013,05,03,05,00,4.30
2013,05,03,05,01,4.30
2013,05,03,05,02,4.30
2013,05,03,05,03,4.30
2013,05,03,05,04,4.30
2013,05,03,05,05,4.30
2013,05,03,05,06,4.30
2013,05,03,05,07,4.30
2013,05,03,05,08,4.30
2013,05,03,05,09,4.30
2013,05,03,05,10,4.30
2013,05,03,05,11,4.30
2013,05,03,05,12,4.40
2013,05,03,05,13,4.40
2013,05,03,05,14,4.40
2013,05,03,05,15,4.30
2013,05,03,05,16,4.30
2013,05,03,05,17,4.30
2013,05,03,05,18,4.30
2013,05,03,05,19,4.30
2013,05,03,05,20,4.20
2013,05,03,05,21,4.20
2013,05,03,05,22,4.20
2013,05,03,05,23,4.20
2013,05,03,05,24,4.20
2013,05,03,05,25,4.20
2013,05,03,05,26,4.20
2013,05,03,05,27,4.20
2013,05,03,05,28,4.20
2013,05,03,05,29,4.20
2013,05,03,05,30,4.20
2013,05,03,05,31,4.20
2013,05,03,05,32,4.20
2013,05,03,05,33,4.20
2013,05,03,05,34,4.20
2013,05,03,05,35,4.20
2013,05,03,05,36,4.20
2013,05,03,05,37,4.20
2013,05,03,05,38,4.20
2013,05,03,05,39,4.20
2013,05,03,05,40,4.30
2013,05,03,05,41,4.20
2013,05,03,05,42,4.20
2013,05,03,05,43,4.20
2013,05,03,05,44,4.20
2013,05,03,05,45,4.20
2013,05,03,05,46,4.20
2013,05,03,05,47,4.20
2013,05,03,05,48,4.20
2013,05,03,05,49,4.20
2013,05,03,05,50,4.10
2013,05,03,05,51,4.10
2013,05,03,05,52,4.10
2013,05,03,05,53,4.10
2013,05,03,05,54,4.10
2013,05,03,05,55,4.10
2013,05,03,05,56,4.10
2013,05,03,05,57,4.00
2013,05,03,05,58,4.00
2013,05,03,05,59,4.00
2013,05,03,06,00,4.00
2013,05,03,06,01,4.00
2013,05,03,06,02,4.00
2013,05,03,06,03,3.90
2013,05,03,06,04,3.90
2013,05,03,06,05,3.90
2013,05,03,06,06,3.90
2013,05,03,06,07,3.90
2013,05,03,06,08,3.90
2013,05,03,06,09,3.90
2013,05,03,06,10,3.90
2013,05,03,06,11,3.90
2013,05,03,06,12,4.00
2013,05,03,06,13,4.10
2013,05,03,06,14,4.10
2013,05,03,06,15,4.10
2013,05,03,06,16,4.10
2013,05,03,06,17,4.10
2013,05,03,06,18,4.10
2013,05,03,06,19,4.10
2013,05,03,06,20,4.10
2013,05,03,06,21,4.10
2013,05,03,06,22,4.20
2013,05,03,06,23,4.10
2013,05,03,06,24,4.10
2013,05,03,06,25,4.10
2013,05,03,06,26,4.10
2013,05,03,06,27,4.10
2013,05,03,06,28,4.10
2013,05,03,06,29,4.10
2013,05,03,06,30,4.10
2013,05,03,06,31,4.10
2013,05,03,06,32,4.10
2013,05,03,06,33,4.10
2013,05,03,06,34,4.10
2013,05,03,06,35,4.10
2013,05,03,06,36,4.10
2013,05,03,06,37,4.10
2013,05,03,06,38,4.10
2013,05,03,06,39,4.10
2013,05,03,06,40,4.10
2013,05,03,06,41,4.10
2013,05,03,06,42,4.10
2013,05,03,06,43,4.10
2013,05,03,06,44,4.10
2013,05,03,06,45,4.10
2013,05,03,06,46,4.20
2013,05,03,06,47,4.20
2013,05,03,06,48,4.20
2013,05,03,06,49,4.20
2013,05,03,06,50,4.30
2013,05,03,06,51,4.30
2013,05,03,06,52,4.30
2013,05,03,06,53,4.30
2013,05,03,06,54,4.40
2013,05,03,06,55,4.40
2013,05,03,06,56,4.50
2013,05,03,06,57,4.50
2013,05,03,06,58,4.60
2013,05,03,06,59,4.60
2013,05,03,07,00,4.70
2013,05,03,07,01,4.80
2013,05,03,07,02,4.90
2013,05,03,07,03,5.00
2013,05,03,07,04,5.10
2013,05,03,07,05,5.20
2013,05,03,07,06,5.30
2013,05,03,07,07,5.40
2013,05,03,07,08,5.50
2013,05,03,07,09,5.60
2013,05,03,07,10,5.70
2013,05,03,07,11,5.80
2013,05,03,07,12,5.90
2013,05,03,07,13,5.90
2013,05,03,07,14,6.00
2013,05,03,07,15,6.10
2013,05,03,07,16,6.10
2013,05,03,07,17,6.10
2013,05,03,07,18,6.20
2013,05,03,07,19,6.30
2013,05,03,07,20,6.30
2013,05,03,07,21,6.50
2013,05,03,07,22,6.60
2013,05,03,07,23,6.80
2013,05,03,07,24,6.90
2013,05,03,07,25,7.00
2013,05,03,07,26,7.10
2013,05,03,07,27,7.20
2013,05,03,07,28,7.20
2013,05,03,07,29,7.30
2013,05,03,07,30,7.30
2013,05,03,07,31,7.40
2013,05,03,07,32,7.40
2013,05,03,07,33,7.50
2013,05,03,07,34,7.70
2013,05,03,07,35,7.80
2013,05,03,07,36,8.00
2013,05,03,07,37,8.10
2013,05,03,07,38,8.20
2013,05,03,07,39,8.30
2013,05,03,07,40,8.40
2013,05,03,07,41,8.50
2013,05,03,07,42,8.50
2013,05,03,07,43,8.60
2013,05,03,07,44,8.60
2013,05,03,07,45,8.70
2013,05,03,07,46,8.80
2013,05,03,07,47,8.90
2013,05,03,07,48,9.00
2013,05,03,07,49,9.20
2013,05,03,07,50,9.40
2013,05,03,07,51,9.60
2013,05,03,07,52,9.70
2013,05,03,07,53,9.90
2013,05,03,07,54,10.10
2013,05,03,07,55,10.30
2013,05,03,07,56,10.40
2013,05,03,07,57,10.50
2013,05,03,07,58,10.60
2013,05,03,07,59,10.80
2013,05,03,08,00,10.90
2013,05,03,08,01,11.00
2013,05,03,08,02,11.10
2013,05,03,08,03,11.20
2013,05,03,08,04,11.30
2013,05,03,08,05,11.40
2013,05,03,08,06,11.50
2013,05,03,08,07,11.60
2013,05,03,08,08,11.70
2013,05,03,08,09,11.80
2013,05,03,08,10,11.80
2013,05,03,08,11,11.90
2013,05,03,08,12,12.00
2013,05,03,08,13,12.00
2013,05,03,08,14,12.10
2013,05,03,08,15,12.10
2013,05,03,08,16,12.10
2013,05,03,08,17,12.20
2013,05,03,08,18,12.30
2013,05,03,08,19,12.30
2013,05,03,08,20,12.40
2013,05,03,08,21,12.50
2013,05,03,08,22,12.60
2013,05,03,08,23,12.70
2013,05,03,08,24,12.80
2013,05,03,08,25,12.80
2013,05,03,08,26,12.90
2013,05,03,08,27,13.00
2013,05,03,08,28,13.00
2013,05,03,08,29,13.10
2013,05,03,08,30,13.20
2013,05,03,08,31,13.20
2013,05,03,08,32,13.30
2013,05,03,08,33,13.30
2013,05,03,08,34,13.30
2013,05,03,08,35,13.30
2013,05,03,08,36,13.30
2013,05,03,08,37,13.30
2013,05,03,08,38,13.40
2013,05,03,08,39,13.40
2013,05,03,08,40,13.50
2013,05,03,08,41,13.50
2013,05,03,08,42,13.50
2013,05,03,08,43,13.50
2013,05,03,08,44,13.50
2013,05,03,08,45,13.60
2013,05,03,08,46,13.60
2013,05,03,08,47,13.70
2013,05,03,08,48,13.70
2013,05,03,08,49,13.70
2013,05,03,08,50,13.80
2013,05,03,08,51,13.80
2013,05,03,08,52,13.80
2013,05,03,08,53,13.90
2013,05,03,08,54,13.90
2013,05,03,08,55,14.00
2013,05,03,08,56,14.00
2013,05,03,08,57,13.90
2013,05,03,08,58,14.00
2013,05,03,08,59,14.00
2013,05,03,09,00,14.00
2013,05,03,09,01,14.00
2013,05,03,09,02,14.00
2013,05,03,09,03,14.10
2013,05,03,09,04,14.10
2013,05,03,09,05,14.20
2013,05,03,09,06,14.30
2013,05,03,09,07,14.30
2013,05,03,09,08,14.30
2013,05,03,09,09,14.40
2013,05,03,09,10,14.40
2013,05,03,09,11,14.40
2013,05,03,09,12,14.40
2013,05,03,09,13,14.50
2013,05,03,09,14,14.50
2013,05,03,09,15,14.60
2013,05,03,09,16,14.60
2013,05,03,09,17,14.70
2013,05,03,09,18,14.70
2013,05,03,09,19,14.80
2013,05,03,09,20,14.80
2013,05,03,09,21,14.80
2013,05,03,09,22,14.70
2013,05,03,09,23,14.70
2013,05,03,09,24,14.60
2013,05,03,09,25,14.60
2013,05,03,09,26,14.60
2013,05,03,09,27,14.60
2013,05,03,09,28,14.60
2013,05,03,09,29,14.50
2013,05,03,09,30,14.50
2013,05,03,09,31,14.50
2013,05,03,09,32,14.50
2013,05,03,09,33,14.40
2013,05,03,09,34,14.30
2013,05,03,09,35,14.30
2013,05,03,09,36,14.30
2013,05,03,09,37,14.30
2013,05,03,09,38,14.30
2013,05,03,09,39,14.30
2013,05,03,09,40,14.30
2013,05,03,09,41,14.40
2013,05,03,09,42,14.40
2013,05,03,09,43,14.50
2013,05,03,09,44,14.50
2013,05,03,09,45,14.50
2013,05,03,09,46,14.60
2013,05,03,09,47,14.60
2013,05,03,09,48,14.70
2013,05,03,09,49,14.70
2013,05,03,09,50,14.70
2013,05,03,09,51,14.70
2013,05,03,09,52,14.70
2013,05,03,09,53,14.70
2013,05,03,09,54,14.70
2013,05,03,09,55,14.70
2013,05,03,09,56,14.80
2013,05,03,09,57,14.80
2013,05,03,09,58,14.90
2013,05,03,09,59,15.00
2013,05,03,10,00,15.00
2013,05,03,10,01,15.00
2013,05,03,10,02,15.00
2013,05,03,10,03,15.10
2013,05,03,10,04,15.20
2013,05,03,10,05,15.20
2013,05,03,10,06,15.30
2013,05,03,10,07,15.40
2013,05,03,10,08,15.40
2013,05,03,10,09,15.50
2013,05,03,10,10,15.60
2013,05,03,10,11,15.60
2013,05,03,10,12,15.70
2013,05,03,10,13,15.80
2013,05,03,10,14,15.90
2013,05,03,10,15,16.00
2013,05,03,10,16,16.10
2013,05,03,10,17,16.10
2013,05,03,10,18,16.10
2013,05,03,10,19,16.20
2013,05,03,10,20,16.10
2013,05,03,10,21,16.10
2013,05,03,10,22,16.20
2013,05,03,10,23,16.20
2013,05,03,10,24,16.20
2013,05,03,10,25,16.20
2013,05,03,10,26,16.20
2013,05,03,10,27,16.30
2013,05,03,10,28,16.20
2013,05,03,10,29,16.30
2013,05,03,10,30,16.40
2013,05,03,10,31,16.40
2013,05,03,10,32,16.50
2013,05,03,10,33,16.60
2013,05,03,10,34,16.70
2013,05,03,10,35,16.80
2013,05,03,10,36,16.70
2013,05,03,10,37,16.70
2013,05,03,10,38,16.70
2013,05,03,10,39,16.70
2013,05,03,10,40,16.70
2013,05,03,10,41,16.70
2013,05,03,10,42,16.70
2013,05,03,10,43,16.70
2013,05,03,10,44,16.70
2013,05,03,10,45,16.70
2013,05,03,10,46,16.70
2013,05,03,10,47,16.70
2013,05,03,10,48,16.70
2013,05,03,10,49,16.80
2013,05,03,10,50,16.80
2013,05,03,10,51,16.90
2013,05,03,10,52,17.00
2013,05,03,10,53,17.10
2013,05,03,10,54,17.10
2013,05,03,10,55,17.20
2013,05,03,10,56,17.20
2013,05,03,10,57,17.20
2013,05,03,10,58,17.30
2013,05,03,10,59,17.40
2013,05,03,11,00,17.40
2013,05,03,11,01,17.50
2013,05,03,11,02,17.60
2013,05,03,11,03,17.60
2013,05,03,11,04,17.70
2013,05,03,11,05,17.70
2013,05,03,11,06,17.70
2013,05,03,11,07,17.60
2013,05,03,11,08,17.50
2013,05,03,11,09,17.40
2013,05,03,11,10,17.40
2013,05,03,11,11,17.40
2013,05,03,11,12,17.40
2013,05,03,11,13,17.50
2013,05,03,11,14,17.60
2013,05,03,11,15,17.60
2013,05,03,11,16,17.70
2013,05,03,11,17,17.70
2013,05,03,11,18,17.70
2013,05,03,11,19,17.70
2013,05,03,11,20,17.70
2013,05,03,11,21,17.50
2013,05,03,11,22,17.50
2013,05,03,11,23,17.50
2013,05,03,11,24,17.50
2013,05,03,11,25,17.60
2013,05,03,11,26,17.60
2013,05,03,11,27,17.60
2013,05,03,11,28,17.60
2013,05,03,11,29,17.70
2013,05,03,11,30,17.70
2013,05,03,11,31,17.70
2013,05,03,11,32,17.80
2013,05,03,11,33,17.80
2013,05,03,11,34,17.90
2013,05,03,11,35,18.00
2013,05,03,11,36,18.10
2013,05,03,11,37,18.20
2013,05,03,11,38,18.20
2013,05,03,11,39,18.20
2013,05,03,11,40,18.20
2013,05,03,11,41,18.40
2013,05,03,11,42,18.50
2013,05,03,11,43,18.50
2013,05,03,11,44,18.60
2013,05,03,11,45,18.60
2013,05,03,11,46,18.70
2013,05,03,11,47,18.70
2013,05,03,11,48,18.60
2013,05,03,11,49,18.60
2013,05,03,11,50,18.60
2013,05,03,11,51,18.60
2013,05,03,11,52,18.60
2013,05,03,11,53,18.50
2013,05,03,11,54,18.40
2013,05,03,11,55,18.30
2013,05,03,11,56,18.30
2013,05,03,11,57,18.30
2013,05,03,11,58,18.20
2013,05,03,11,59,18.10
2013,05,03,12,00,18.00
2013,05,03,12,01,17.90
2013,05,03,12,02,17.80
2013,05,03,12,03,17.70
2013,05,03,12,04,17.70
2013,05,03,12,05,17.70
2013,05,03,12,06,17.70
2013,05,03,12,07,17.70
2013,05,03,12,08,17.70
2013,05,03,12,09,17.70
2013,05,03,12,10,17.80
2013,05,03,12,11,17.80
2013,05,03,12,12,17.90
2013,05,03,12,13,17.90
2013,05,03,12,14,18.00
2013,05,03,12,15,18.00
2013,05,03,12,16,18.10
2013,05,03,12,17,18.10
2013,05,03,12,18,18.10
2013,05,03,12,19,18.10
2013,05,03,12,20,18.00
2013,05,03,12,21,17.90
2013,05,03,12,22,17.90
2013,05,03,12,23,18.00
2013,05,03,12,24,18.10
2013,05,03,12,25,18.20
2013,05,03,12,26,18.20
2013,05,03,12,27,18.20
2013,05,03,12,28,18.20
2013,05,03,12,29,18.20
2013,05,03,12,30,18.20
2013,05,03,12,31,18.20
2013,05,03,12,32,18.20
2013,05,03,12,33,18.20
2013,05,03,12,34,18.30
2013,05,03,12,35,18.20
2013,05,03,12,36,18.10
2013,05,03,12,37,18.10
2013,05,03,12,38,18.10
2013,05,03,12,39,18.10
2013,05,03,12,40,18.10
2013,05,03,12,41,18.00
2013,05,03,12,42,18.00
2013,05,03,12,43,18.00
2013,05,03,12,44,17.90
2013,05,03,12,45,17.90
2013,05,03,12,46,18.00
2013,05,03,12,47,17.90
2013,05,03,12,48,17.80
2013,05,03,12,49,17.80
2013,05,03,12,50,17.70
2013,05,03,12,51,17.70
2013,05,03,12,52,17.70
2013,05,03,12,53,17.70
2013,05,03,12,54,17.70
2013,05,03,12,55,17.80
2013,05,03,12,56,18.00
2013,05,03,12,57,18.10
2013,05,03,12,58,18.20
2013,05,03,12,59,18.30
2013,05,03,13,00,18.40
2013,05,03,13,01,18.40
2013,05,03,13,02,18.40
2013,05,03,13,03,18.40
2013,05,03,13,04,18.40
2013,05,03,13,05,18.40
2013,05,03,13,06,18.40
2013,05,03,13,07,18.40
2013,05,03,13,08,18.40
2013,05,03,13,09,18.40
2013,05,03,13,10,18.40
2013,05,03,13,11,18.40
2013,05,03,13,12,18.30
2013,05,03,13,13,18.20
2013,05,03,13,14,18.10
2013,05,03,13,15,18.10
2013,05,03,13,16,18.00
2013,05,03,13,17,18.10
2013,05,03,13,18,18.10
2013,05,03,13,19,18.10
2013,05,03,13,20,18.00
2013,05,03,13,21,18.00
2013,05,03,13,22,18.00
2013,05,03,13,23,18.10
2013,05,03,13,24,18.20
2013,05,03,13,25,18.30
2013,05,03,13,26,18.30
2013,05,03,13,27,18.30
2013,05,03,13,28,18.40
2013,05,03,13,29,18.40
2013,05,03,13,30,18.50
2013,05,03,13,31,18.70
2013,05,03,13,32,18.70
2013,05,03,13,33,18.70
2013,05,03,13,34,18.60
2013,05,03,13,35,18.50
2013,05,03,13,36,18.40
2013,05,03,13,37,18.30
2013,05,03,13,38,18.30
2013,05,03,13,39,18.30
2013,05,03,13,40,18.30
2013,05,03,13,41,18.40
2013,05,03,13,42,18.50
2013,05,03,13,43,18.50
2013,05,03,13,44,18.50
2013,05,03,13,45,18.50
2013,05,03,13,46,18.40
2013,05,03,13,47,18.40
2013,05,03,13,48,18.30
2013,05,03,13,49,18.30
2013,05,03,13,50,18.20
2013,05,03,13,51,18.20
2013,05,03,13,52,18.10
2013,05,03,13,53,18.10
2013,05,03,13,54,18.20
2013,05,03,13,55,18.40
2013,05,03,13,56,18.50
2013,05,03,13,57,18.60
2013,05,03,13,58,18.60
2013,05,03,13,59,18.60
2013,05,03,14,00,18.70
2013,05,03,14,01,18.80
2013,05,03,14,02,18.90
2013,05,03,14,03,19.00
2013,05,03,14,04,19.10
2013,05,03,14,05,19.20
2013,05,03,14,06,19.30
2013,05,03,14,07,19.40
2013,05,03,14,08,19.50
2013,05,03,14,09,19.60
2013,05,03,14,10,19.60
2013,05,03,14,11,19.60
2013,05,03,14,12,19.50
2013,05,03,14,13,19.50
2013,05,03,14,14,19.50
2013,05,03,14,15,19.60
2013,05,03,14,16,19.60
2013,05,03,14,17,19.70
2013,05,03,14,18,19.70
2013,05,03,14,19,19.80
2013,05,03,14,20,19.80
2013,05,03,14,21,19.90
2013,05,03,14,22,20.00
2013,05,03,14,23,20.10
2013,05,03,14,24,20.20
2013,05,03,14,25,20.30
2013,05,03,14,26,20.40
2013,05,03,14,27,20.60
2013,05,03,14,28,20.70
2013,05,03,14,29,20.80
2013,05,03,14,30,20.80
2013,05,03,14,31,20.80
2013,05,03,14,32,20.80
2013,05,03,14,33,20.90
2013,05,03,14,34,21.00
2013,05,03,14,35,21.00
2013,05,03,14,36,21.10
2013,05,03,14,37,21.20
2013,05,03,14,38,21.20
2013,05,03,14,39,21.20
2013,05,03,14,40,21.20
2013,05,03,14,41,21.30
2013,05,03,14,42,21.30
2013,05,03,14,43,21.30
2013,05,03,14,44,21.30
2013,05,03,14,45,21.30
2013,05,03,14,46,21.40
2013,05,03,14,47,21.50
2013,05,03,14,48,21.70
2013,05,03,14,49,21.70
2013,05,03,14,50,21.60
2013,05,03,14,51,21.50
2013,05,03,14,52,21.50
2013,05,03,14,53,21.70
2013,05,03,14,54,21.80
2013,05,03,14,55,21.90
2013,05,03,14,56,22.00
2013,05,03,14,57,22.10
2013,05,03,14,58,22.10
2013,05,03,14,59,22.20
2013,05,03,15,00,22.20
2013,05,03,15,01,22.10
2013,05,03,15,02,22.10
2013,05,03,15,03,22.20
2013,05,03,15,04,22.20
2013,05,03,15,05,22.20
2013,05,03,15,06,22.10
2013,05,03,15,07,22.10
2013,05,03,15,08,22.00
2013,05,03,15,09,21.90
2013,05,03,15,10,21.80
2013,05,03,15,11,21.70
2013,05,03,15,12,21.60
2013,05,03,15,13,21.60
2013,05,03,15,14,21.70
2013,05,03,15,15,21.70
2013,05,03,15,16,21.60
2013,05,03,15,17,21.60
2013,05,03,15,18,21.70
2013,05,03,15,19,21.70
2013,05,03,15,20,21.70
2013,05,03,15,21,21.70
2013,05,03,15,22,21.80
2013,05,03,15,23,21.80
2013,05,03,15,24,21.80
2013,05,03,15,25,21.80
2013,05,03,15,26,21.80
2013,05,03,15,27,21.80
2013,05,03,15,28,22.00
2013,05,03,15,29,22.10
2013,05,03,15,30,22.20
2013,05,03,15,31,22.30
2013,05,03,15,32,22.30
2013,05,03,15,33,22.30
2013,05,03,15,34,22.30
2013,05,03,15,35,22.30
2013,05,03,15,36,22.30
2013,05,03,15,37,22.30
2013,05,03,15,38,22.20
2013,05,03,15,39,22.20
2013,05,03,15,40,22.20
2013,05,03,15,41,22.20
2013,05,03,15,42,22.20
2013,05,03,15,43,22.20
2013,05,03,15,44,22.20
2013,05,03,15,45,22.30
2013,05,03,15,46,22.40
2013,05,03,15,47,22.50
2013,05,03,15,48,22.60
2013,05,03,15,49,22.60
2013,05,03,15,50,22.60
2013,05,03,15,51,22.60
2013,05,03,15,52,22.50
2013,05,03,15,53,22.30
2013,05,03,15,54,22.20
2013,05,03,15,55,22.10
2013,05,03,15,56,22.00
2013,05,03,15,57,22.00
2013,05,03,15,58,21.90
2013,05,03,15,59,21.90
2013,05,03,16,00,21.80
2013,05,03,16,01,21.80
2013,05,03,16,02,21.70
2013,05,03,16,03,21.60
2013,05,03,16,04,21.50
2013,05,03,16,05,21.50
2013,05,03,16,06,21.50
2013,05,03,16,07,21.50
2013,05,03,16,08,21.50
2013,05,03,16,09,21.50
2013,05,03,16,10,21.50
2013,05,03,16,11,21.50
2013,05,03,16,12,21.50
2013,05,03,16,13,21.50
2013,05,03,16,14,21.40
2013,05,03,16,15,21.30
2013,05,03,16,16,21.10
2013,05,03,16,17,21.00
2013,05,03,16,18,21.00
2013,05,03,16,19,20.90
2013,05,03,16,20,20.90
2013,05,03,16,21,21.00
2013,05,03,16,22,21.00
2013,05,03,16,23,21.00
2013,05,03,16,24,21.10
2013,05,03,16,25,21.10
2013,05,03,16,26,21.10
2013,05,03,16,27,21.10
2013,05,03,16,28,21.10
2013,05,03,16,29,21.10
2013,05,03,16,30,21.00
2013,05,03,16,31,20.90
2013,05,03,16,32,20.80
2013,05,03,16,33,20.70
2013,05,03,16,34,20.60
2013,05,03,16,35,20.60
2013,05,03,16,36,20.60
2013,05,03,16,37,20.60
2013,05,03,16,38,20.50
2013,05,03,16,39,20.40
2013,05,03,16,40,20.30
2013,05,03,16,41,20.30
2013,05,03,16,42,20.30
2013,05,03,16,43,20.30
2013,05,03,16,44,20.30
2013,05,03,16,45,20.40
2013,05,03,16,46,20.40
2013,05,03,16,47,20.40
2013,05,03,16,48,20.30
2013,05,03,16,49,20.30
2013,05,03,16,50,20.40
2013,05,03,16,51,20.40
2013,05,03,16,52,20.40
2013,05,03,16,53,20.40
2013,05,03,16,54,20.50
2013,05,03,16,55,20.50
2013,05,03,16,56,20.60
2013,05,03,16,57,20.60
2013,05,03,16,58,20.60
2013,05,03,16,59,20.60
2013,05,03,17,00,20.70
2013,05,03,17,01,20.70
2013,05,03,17,02,20.70
2013,05,03,17,03,20.70
2013,05,03,17,04,20.80
2013,05,03,17,05,20.80
2013,05,03,17,06,20.80
2013,05,03,17,07,20.80
2013,05,03,17,08,20.90
2013,05,03,17,09,20.90
2013,05,03,17,10,20.90
2013,05,03,17,11,21.00
2013,05,03,17,12,21.10
2013,05,03,17,13,21.20
2013,05,03,17,14,21.20
2013,05,03,17,15,21.30
2013,05,03,17,16,21.30
2013,05,03,17,17,21.30
2013,05,03,17,18,21.30
2013,05,03,17,19,21.30
2013,05,03,17,20,21.30
2013,05,03,17,21,21.30
2013,05,03,17,22,21.30
2013,05,03,17,23,21.40
2013,05,03,17,24,21.40
2013,05,03,17,25,21.40
2013,05,03,17,26,21.40
2013,05,03,17,27,21.30
2013,05,03,17,28,21.30
2013,05,03,17,29,21.30
2013,05,03,17,30,21.30
2013,05,03,17,31,21.30
2013,05,03,17,32,21.40
2013,05,03,17,33,21.50
2013,05,03,17,34,21.50
2013,05,03,17,35,21.50
2013,05,03,17,36,21.40
2013,05,03,17,37,21.30
2013,05,03,17,38,21.20
2013,05,03,17,39,21.20
2013,05,03,17,40,21.20